Location: Chippewa Lake
(41.0698°N, 81.9010°W)
Time: 02:56:17
(UTC+00:00)

Envisat - Visible Passes

Search period start: 19 January 2022 00:00
Search period end: 29 January 2022 00:00
Orbit: 764 x 766 km, 98.2° (Epoch: 18 January)

Date Brightness Start Highest point End Pass type
(mag) Time Alt. Az. Time Alt. Az. Time Alt. Az.
19 Jan 2.9 10:23:08 10° NNE 10:28:14 84° ESE 10:33:19 10° SSW visible
19 Jan 4.7 12:04:26 10° NW 12:06:31 13° WNW 12:08:37 10° W visible
20 Jan 4.3 09:46:34 10° NNE 09:51:16 37° E 09:55:57 10° SSE visible
20 Jan 3.9 11:25:56 10° NNW 11:30:06 26° WNW 11:34:15 10° WSW visible
21 Jan 5.6 09:10:53 10° NE 09:14:07 17° E 09:17:21 10° SE visible
21 Jan 3.0 10:48:30 10° N 10:53:29 56° WNW 10:58:25 10° SSW visible
22 Jan 3.3 10:11:34 10° NNE 10:16:39 66° ESE 10:21:41 10° S visible
22 Jan 4.4 11:52:06 10° NNW 11:55:06 16° WNW 11:58:04 10° W visible
22 Jan 6.5 23:09:29 10° W 23:10:30 11° W 23:11:32 10° WNW visible
23 Jan 4.7 09:35:12 10° NE 09:39:37 29° E 09:44:01 10° SSE visible
23 Jan 3.6 11:14:07 10° N 11:18:36 33° WNW 11:23:06 10° SW visible
24 Jan 5.8 09:00:06 10° ENE 09:02:24 13° E 09:04:41 10° ESE visible
24 Jan 2.8 10:36:50 10° N 10:41:55 72° WNW 10:46:57 10° SSW visible
25 Jan 3.7 10:00:04 10° NNE 10:05:02 51° E 10:09:57 10° S visible
25 Jan 4.2 11:40:02 10° NNW 11:43:38 20° WNW 11:47:13 10° WSW visible
26 Jan 5.1 09:23:56 10° NE 09:27:56 23° E 09:31:55 10° SE visible
26 Jan 3.3 11:02:20 10° N 11:07:05 41° WNW 11:11:49 10° SW visible
27 Jan 2.9 10:25:13 10° NNE 10:30:20 90° ESE 10:35:25 10° SSW visible
27 Jan 4.7 12:06:49 10° NW 12:08:34 12° WNW 12:10:19 10° W visible
28 Jan 4.2 09:48:37 10° NNE 09:53:24 40° E 09:58:08 10° SSE visible
28 Jan 4.0 11:28:06 10° NNW 11:32:10 25° WNW 11:36:12 10° WSW visible
